Location: Latina
(41.4670°N, 12.8670°E)
Time: 16:48:34
(UTC+02:00)

ISS - Pass Details

Date: 15 May 2021
Orbit: 417 x 422 km, 51.6° (Epoch: 18 June)

Event Time Altitude Azimuth Distance (km) Brightness Sun altitude
Rises 23:37:17 0° 275° (W) 2,362 0.4 -26.1°
Reaches altitude 10° 23:39:45 10° 293° (WNW) 1,501 -0.4 -26.3°
Maximum altitude 23:42:20 20° 343° (NNW) 1,037 -1.0 -26.5°
Drops below altitude 10° 23:44:56 10° 34° (NNE) 1,506 -0.5 -26.7°
Sets 23:47:25 0° 51° (NE) 2,374 0.3 -26.8°
